Hourly Data Report for June 24, 2021

SANIRAJAK AIRPORT
NUNAVUT
Current Station Operator: NAVCAN

68°46'33.000" N
81°14'33.000" W
9.10 m
2402354
71293
YUX

Download Data

Hourly Data (June 2021)
Hourly Data Report for June 24, 2021
TIME
LST
Temp Definition
°C
Dew Point Definition
°C
Rel Hum Definition
%
Precip. Amount Definition
mm

Wind Dir Definition
10's deg

Wind Spd Definition
km/h
Visibility Definition
km
Stn Press Definition
kPa
Hmdx Definition


Wind Chill Definition


Weather Definition


00:00 0.8 0.8 100 0.0 17 18 16.1 98.51     LegendNANA
01:00 1.0 1.0 100 0.0 18 21 16.1 98.53     LegendNANA
02:00 0.8 0.8 100 0.0 17 21 16.1 98.56     LegendNANA
03:00 0.7 0.7 100 0.0 17 18 16.1 98.60     LegendNANA
04:00 0.7 0.7 100 0.0 17 18 16.1 98.65     Rain
05:00 0.7 0.7 100 0.0 18 15 16.1 98.71     Rain
06:00 0.7 0.7 100 0.0 17 18 16.1 98.73     Rain
07:00 0.8 0.8 100 0.0 17 15 16.1 98.78     LegendNANA
08:00 0.9 0.9 100 0.0 16 18 16.1 98.86     LegendNANA
09:00 0.8 0.7 99 0.0 16 15 16.1 98.90     LegendNANA
10:00 1.2 0.9 98 0.0 14 15 16.1 98.94     LegendNANA
11:00 1.6 0.9 95 0.0 13 18 16.1 98.97     LegendNANA
12:00 1.3 1.0 98 0.0 15 21 1.0 99.05     Fog
13:00 1.1 1.0 99 0.0 14 21 0.6 99.09     Fog
14:00 1.4 1.0 97 0.0 14 21 3.2 99.12     Fog
15:00 1.0 1.0 100 0.0 14 24 0.4 99.16     Fog
16:00 1.0 1.0 100 0.0 14 15 16.1 99.22     LegendNANA
17:00 0.9 0.9 100 0.0 11 13 16.1 99.23     LegendNANA
18:00 1.0 0.9 99 0.0 11 13 16.1 99.25     Rain
19:00 1.1 1.0 99 0.0 11 15 16.1 99.25     LegendNANA
20:00 1.0 0.9 99 0.0 11 13 16.1 99.30     LegendNANA
21:00 1.9 1.5 97 0.0 13 21 16.1 99.30     LegendNANA
22:00 1.5 1.2 98 0.0 10 13 16.1 99.34     LegendNANA
23:00 1.3 1.0 98 0.0 8 13 16.1 99.36     LegendNANA

Notes on Data Quality.

Legend

  • E = Estimated
  • M = Missing
  • NA = Not Available*
  • [empty] = Indicates an unobserved value
Date modified: